Wind_Speed
42 42 42 42 41 40 41 42 44 44 43 43 44 44 43 43 44 44 44 44 44 44 44 44 43 43 42 42 42 42 43 44 45 46 47 47 47 47 46 46 46 47 47 46
42 42 41 41 41 40 40 41 42 43 43 43 43 43 43 42 42 42 42 43 43 43 42 42 42 42 41 41 41 41 42 42 43 44 45 46 46 46 45 45 45 45 45 45
43 41 41 41 39 39 40 40 41 42 42 42 41 41 41 42 42 41 41 41 42 42 42 41 41 42 41 41 41 40 40 40 41 42 44 44 45 45 45 45 45 45 45 45
43 41 41 40 39 39 39 40 41 41 42 41 41 40 40 41 41 40 40 39 39 39 39 40 40 40 40 40 40 39 39 39 39 41 43 44 44 44 45 45 45 45 44 44
41 41 42 40 39 39 40 40 40 41 41 41 40 39 38 39 40 40 39 38 38 38 38 38 38 38 37 38 38 39 38 39 39 40 42 43 43 43 44 44 44 44 44 44
40 40 41 40 39 40 41 40 40 40 40 40 39 39 37 38 38 38 39 38 37 37 37 37 36 36 36 36 36 36 36 37 38 39 40 41 42 43 43 44 44 43 44 44
38 40 41 40 39 39 39 40 39 39 38 38 38 38 37 37 38 38 37 37 37 36 36 35 35 35 34 34 34 35 34 35 36 37 38 39 41 42 42 42 42 42 42 43
38 39 39 39 39 39 40 40 39 38 38 38 37 37 37 37 37 37 37 36 35 34 34 34 34 33 32 32 32 32 33 33 34 34 36 37 38 39 40 40 40 40 40 41
39 39 39 38 39 39 40 40 39 39 38 38 37 37 37 37 38 37 36 35 34 32 32 32 32 31 30 30 30 30 31 31 32 33 34 35 36 37 38 39 39 39 40 41
39 38 38 38 39 39 40 39 39 38 37 37 37 37 37 37 37 36 34 33 32 31 31 31 30 29 28 27 28 28 29 29 30 31 32 33 33 35 36 37 38 38 38 39
38 37 38 37 38 38 38 38 37 37 37 37 37 36 37 36 35 34 33 32 32 31 31 30 29 28 28 27 27 27 27 28 28 29 30 31 31 32 33 34 35 36 36 37
37 36 37 36 37 37 38 38 37 37 36 36 36 35 35 34 33 32 31 31 30 30 30 29 28 28 27 27 26 25 24 25 26 27 28 29 29 30 31 32 33 34 35 35
35 36 36 37 37 37 37 37 37 37 36 35 35 35 34 33 32 31 31 30 30 29 29 28 27 27 26 26 26 25 25 25 25 26 26 27 28 28 28 30 31 33 34 34
35 36 36 36 36 37 37 36 36 36 36 35 34 34 33 33 32 31 31 30 29 28 28 27 27 27 26 26 26 25 25 25 25 25 26 26 27 27 27 28 29 31 33 34
35 35 35 35 36 36 36 36 36 35 35 34 33 32 32 31 31 30 30 29 28 28 27 26 26 26 26 26 25 25 24 24 25 25 25 25 26 27 27 28 29 30 31 32
34 34 35 35 36 36 36 35 34 34 33 32 31 31 30 30 30 30 30 29 28 27 26 26 26 26 26 26 26 25 25 25 25 25 25 25 26 27 28 28 29 30 30 31
32 33 33 34 34 35 34 34 33 32 31 31 30 30 30 30 30 30 29 28 27 26 26 25 25 25 25 25 25 25 25 25 25 26 26 27 27 28 28 29 29 29 29 30
31 32 32 33 33 32 32 32 32 31 31 30 29 29 29 29 29 29 28 27 26 26 26 26 25 25 25 25 25 24 24 25 25 26 27 27 28 28 29 29 29 29 29 29
32 32 32 32 32 32 32 31 31 31 30 30 29 29 29 29 28 28 27 26 26 26 26 25 25 24 24 24 24 24 24 24 24 25 26 26 27 28 28 28 29 28 28 28
32 32 32 32 32 32 32 32 31 31 31 30 30 30 29 29 28 27 26 26 26 25 24 24 24 23 23 23 24 24 23 23 23 23 24 24 25 26 26 26 27 27 27 26
32 32 32 32 32 32 32 32 31 31 31 30 29 29 28 27 27 26 25 25 25 24 23 23 23 23 23 23 23 23 23 23 23 23 23 23 23 23 23 24 24 25 25 25
31 31 32 32 32 32 32 31 31 30 29 28 28 27 26 26 26 26 25 25 24 23 23 23 23 23 23 23 23 23 23 23 23 22 22 21 21 21 21 21 22 22 23 23
30 31 31 31 31 31 30 30 29 28 27 27 26 26 26 25 25 25 25 24 23 23 22 22 23 22 22 22 21 21 21 21 21 21 20 20 20 20 21 21 21 21 21 21
30 31 30 30 30 29 28 28 27 26 26 25 25 25 25 24 25 25 24 23 22 22 22 22 21 21 20 19 18 18 18 18 19 19 19 19 19 19 20 20 20 20 20 20
29 29 28 28 28 27 26 26 25 25 24 24 24 24 24 24 24 23 23 22 22 22 22 21 20 20 19 18 17 17 17 17 17 17 18 18 18 18 18 19 19 20 20 20
27 27 27 27 26 26 25 25 24 24 24 24 24 24 24 23 23 23 23 22 22 21 21 20 20 19 18 17 16 16 15 15 15 16 16 17 17 17 17 18 19 19 20 20
26 26 26 25 25 24 24 24 24 23 23 23 23 23 23 23 23 22 22 22 21 20 20 19 19 18 17 16 15 15 15 15 15 15 15 16 16 17 17 18 18 18 19 19
Wind_Direction
298 298 298 298 298 298 296 297 296 297 296 296 294 294 294 293 291 290 288 286 283 280 278 276 274 272 271 269 267 266 263 260 256 252 250 250 249 248 248 248 248 248 248 248
297 297 298 298 298 298 297 297 297 297 297 296 295 294 293 293 293 291 289 287 284 282 279 277 275 273 271 270 267 266 263 260 256 252 250 249 249 248 248 248 249 248 248 247
297 297 297 298 300 298 297 298 299 299 299 298 296 295 294 293 293 292 290 288 286 283 281 278 276 274 272 270 268 267 264 260 256 253 251 250 249 247 247 248 249 249 248 247
297 297 296 301 300 299 298 299 299 300 300 299 298 297 296 294 294 294 292 289 287 285 282 280 277 275 273 271 268 267 264 260 257 255 252 251 250 248 248 248 249 249 248 248
298 297 298 300 302 300 299 299 299 300 300 299 298 297 296 296 296 295 293 291 289 286 284 281 279 277 274 271 269 267 264 261 259 256 254 251 249 248 248 248 249 249 248 248
297 297 299 302 302 302 301 301 300 300 300 300 300 298 298 296 296 296 295 293 290 288 286 283 282 279 276 272 271 268 265 262 260 257 254 251 249 249 249 249 249 249 248 248
297 297 299 303 303 303 303 305 303 301 300 300 300 300 299 299 297 296 296 295 292 290 288 285 283 281 277 274 271 268 265 263 260 257 255 253 251 250 250 249 249 248 248 248
297 298 301 302 302 303 304 304 304 303 301 300 300 299 299 299 298 297 296 295 293 292 290 287 285 282 278 274 272 269 265 263 261 258 256 253 251 250 250 249 248 247 247 247
298 299 300 301 301 302 303 303 303 303 302 301 301 300 299 299 298 297 295 294 293 291 290 289 287 285 280 276 273 271 267 264 261 259 258 255 253 251 250 249 248 247 247 247
297 298 299 300 300 301 302 303 304 303 303 303 302 302 300 299 298 297 295 293 292 291 290 289 287 286 282 278 276 273 269 265 262 260 258 256 254 253 251 250 249 248 247 247
296 297 297 299 300 301 301 302 302 303 303 303 303 303 303 301 299 298 296 294 292 291 290 288 286 285 283 279 277 274 271 267 264 261 258 256 255 253 252 251 251 248 247 246
296 297 297 299 300 301 301 302 302 302 303 303 303 304 304 303 301 299 297 295 293 291 289 288 286 285 283 279 277 275 272 268 263 260 258 256 254 254 253 252 251 249 247 247
296 297 298 299 300 301 302 303 302 303 302 303 303 304 305 304 302 300 298 296 294 292 290 288 286 285 283 279 277 275 271 268 264 260 258 256 255 255 253 253 252 250 249 248
297 298 299 299 300 301 302 303 303 303 303 303 303 303 304 304 303 302 300 297 295 293 291 289 288 285 284 281 277 275 272 270 267 263 261 259 257 255 254 253 252 250 250 251
298 298 300 300 301 302 303 303 303 304 304 303 302 302 303 304 304 303 301 298 296 294 292 289 287 286 284 282 280 276 272 271 269 266 262 260 258 257 255 254 253 252 251 252
299 299 300 302 302 302 303 303 304 304 304 304 303 302 303 303 304 303 302 299 297 295 292 290 288 287 284 281 279 276 273 272 269 265 262 261 261 259 258 256 255 255 254 254
299 299 300 301 302 303 304 305 305 304 304 303 303 303 303 303 303 303 302 300 298 295 293 291 290 288 285 281 277 273 272 271 268 264 264 264 263 261 259 259 258 257 256 255
300 300 300 301 303 304 304 305 305 305 304 303 303 304 304 304 303 302 301 299 298 296 294 293 291 288 285 281 277 274 271 269 268 267 266 265 264 262 261 260 259 257 255 255
300 300 302 303 303 304 304 304 304 304 304 303 303 304 305 305 304 304 302 300 298 297 296 294 291 288 286 282 279 276 274 271 270 269 267 267 265 264 262 260 258 257 255 254
301 301 302 303 303 304 304 304 304 303 303 303 303 303 304 305 306 306 303 302 300 299 296 293 291 289 287 284 281 278 275 272 271 271 270 268 266 263 260 258 256 254 253 254
300 301 302 302 303 304 304 304 304 303 302 302 303 303 304 305 306 306 305 303 302 301 298 295 293 290 287 284 281 278 275 274 273 272 271 268 265 262 258 255 253 253 252 253
301 302 302 303 303 304 304 304 304 303 302 302 302 304 304 305 305 307 306 305 304 302 300 297 295 293 289 286 283 279 276 272 271 270 269 267 264 259 255 254 253 252 252 253
302 303 304 304 304 304 304 305 305 304 303 302 303 303 304 304 305 306 306 305 304 303 303 301 298 296 293 288 284 279 274 270 268 267 266 265 262 257 255 255 254 254 254 254
302 303 304 304 305 305 305 305 305 305 304 304 304 305 305 305 305 305 305 304 303 303 303 302 300 297 294 291 286 281 275 271 268 266 263 262 260 258 257 255 255 255 254 254
303 304 305 306 306 306 306 306 306 305 305 306 306 306 306 306 306 305 305 304 303 303 302 301 300 297 295 292 288 284 279 274 270 266 263 261 260 260 258 256 255 254 253 252
304 305 306 306 306 306 306 306 306 305 305 306 306 307 307 307 306 305 305 304 304 304 303 301 300 297 294 291 288 284 280 276 273 267 263 261 260 259 258 257 255 253 251 250
305 306 307 307 307 308 307 307 307 307 307 307 308 309 309 308 308 306 306 305 305 304 303 302 299 297 294 291 287 283 280 277 273 268 263 261 260 258 258 257 256 254 252 252
Height
5616 5612 5608 5604 5601 5597 5592 5587 5582 5579 5576 5572 5568 5564 5560 5556 5552 5549 5546 5542 5540 5537 5535 5534 5533 5531 5530 5529 5528 5528 5528 5529 5531 5533 5537 5540 5544 5548 5552 5556 5560 5563 5567 5571
5607 5602 5597 5594 5591 5587 5582 5577 5573 5568 5566 5562 5557 5552 5549 5544 5540 5537 5534 5530 5527 5525 5522 5521 5519 5518 5518 5517 5516 5515 5515 5516 5518 5520 5524 5528 5531 5535 5540 5544 5547 5550 5554 5557
5596 5592 5587 5585 5583 5577 5572 5568 5563 5558 5555 5550 5546 5542 5538 5533 5529 5526 5522 5518 5515 5512 5510 5508 5507 5505 5505 5504 5504 5503 5503 5504 5506 5508 5511 5515 5519 5523 5527 5531 5534 5538 5541 5545
5584 5581 5577 5578 5572 5567 5562 5559 5553 5548 5544 5539 5535 5531 5527 5522 5518 5515 5511 5507 5504 5501 5498 5496 5494 5493 5492 5492 5491 5491 5492 5493 5494 5497 5499 5503 5507 5510 5515 5518 5522 5526 5529 5533
5574 5569 5567 5567 5562 5556 5552 5549 5544 5538 5534 5529 5525 5522 5518 5512 5508 5503 5500 5496 5493 5489 5487 5485 5483 5482 5481 5480 5479 5480 5480 5481 5483 5485 5487 5490 5494 5498 5502 5506 5510 5513 5517 5520
5564 5559 5557 5557 5552 5545 5542 5538 5534 5528 5524 5519 5515 5511 5509 5503 5498 5493 5489 5485 5482 5479 5476 5474 5472 5471 5470 5469 5468 5468 5469 5469 5471 5473 5475 5478 5482 5485 5489 5493 5497 5500 5504 5508
5555 5550 5547 5546 5540 5536 5532 5529 5523 5518 5514 5510 5505 5501 5497 5492 5488 5483 5479 5475 5472 5469 5466 5464 5462 5460 5459 5458 5458 5458 5458 5459 5460 5462 5464 5467 5470 5473 5477 5481 5485 5488 5492 5495
5546 5542 5541 5535 5530 5527 5523 5517 5513 5508 5504 5500 5495 5491 5487 5482 5478 5473 5469 5465 5462 5459 5457 5454 5452 5450 5449 5448 5448 5448 5448 5449 5450 5451 5453 5456 5459 5462 5465 5469 5473 5476 5480 5483
5538 5536 5530 5525 5521 5517 5512 5508 5503 5498 5494 5490 5486 5482 5477 5473 5468 5464 5460 5457 5453 5450 5448 5445 5443 5441 5440 5439 5439 5438 5439 5439 5440 5442 5443 5446 5448 5451 5454 5457 5461 5465 5468 5472
5528 5525 5521 5516 5511 5507 5503 5498 5493 5489 5485 5481 5476 5472 5468 5463 5459 5455 5451 5448 5445 5442 5440 5437 5435 5433 5432 5431 5430 5430 5430 5430 5431 5433 5434 5436 5438 5440 5443 5447 5450 5454 5457 5460
5518 5515 5511 5507 5502 5498 5493 5489 5485 5480 5476 5471 5467 5463 5458 5454 5449 5446 5442 5439 5436 5434 5432 5430 5427 5426 5424 5423 5422 5422 5422 5422 5423 5423 5425 5426 5428 5431 5433 5436 5439 5443 5446 5449
5509 5506 5501 5498 5494 5489 5484 5480 5476 5471 5467 5462 5458 5454 5449 5445 5441 5437 5434 5431 5428 5426 5423 5421 5420 5418 5416 5415 5414 5414 5414 5414 5414 5415 5416 5418 5420 5422 5423 5426 5429 5432 5436 5439
5499 5496 5492 5488 5484 5480 5475 5471 5467 5462 5458 5454 5449 5445 5441 5437 5433 5429 5426 5423 5420 5418 5415 5413 5412 5410 5409 5408 5407 5406 5406 5406 5406 5407 5408 5410 5411 5413 5416 5418 5420 5423 5426 5429
5490 5487 5483 5479 5475 5471 5467 5462 5458 5453 5449 5445 5441 5436 5432 5428 5425 5421 5418 5415 5412 5410 5408 5406 5404 5402 5401 5400 5399 5398 5398 5398 5399 5400 5401 5402 5404 5405 5407 5410 5412 5414 5416 5419
5481 5477 5474 5470 5466 5462 5458 5453 5449 5445 5441 5436 5432 5428 5425 5421 5417 5413 5410 5407 5404 5402 5400 5398 5396 5395 5393 5392 5391 5391 5391 5391 5391 5392 5393 5394 5396 5397 5399 5401 5403 5405 5408 5410
5473 5469 5465 5462 5457 5453 5449 5445 5441 5437 5432 5429 5425 5421 5417 5413 5410 5406 5403 5399 5397 5394 5392 5390 5389 5387 5385 5385 5384 5383 5383 5383 5383 5384 5385 5386 5388 5389 5391 5393 5395 5397 5399 5401
5464 5461 5457 5453 5449 5445 5441 5436 5432 5429 5425 5421 5417 5413 5410 5406 5403 5399 5395 5392 5389 5387 5385 5383 5381 5379 5378 5377 5376 5376 5375 5375 5376 5376 5377 5378 5380 5381 5382 5384 5386 5388 5390 5391
5456 5452 5449 5445 5441 5437 5433 5429 5425 5421 5417 5413 5410 5406 5402 5399 5395 5392 5388 5385 5382 5379 5377 5375 5373 5371 5370 5369 5368 5368 5368 5368 5368 5368 5369 5370 5371 5372 5373 5375 5377 5378 5380 5382
5447 5444 5440 5436 5433 5429 5425 5421 5417 5413 5410 5406 5403 5399 5395 5391 5388 5384 5381 5378 5375 5373 5370 5367 5365 5364 5362 5361 5360 5360 5360 5360 5360 5360 5360 5361 5362 5363 5364 5365 5367 5369 5371 5373
5439 5435 5432 5428 5424 5421 5417 5413 5409 5406 5402 5399 5395 5392 5388 5384 5381 5377 5374 5371 5367 5365 5362 5360 5358 5356 5355 5354 5353 5352 5352 5352 5352 5352 5352 5353 5353 5354 5355 5356 5358 5360 5362 5364
5430 5427 5423 5420 5416 5413 5409 5405 5401 5398 5394 5391 5388 5384 5381 5377 5374 5370 5367 5364 5361 5358 5355 5353 5351 5349 5348 5346 5345 5345 5344 5344 5344 5344 5345 5345 5345 5346 5347 5348 5350 5352 5354 5356
5422 5418 5415 5411 5408 5404 5401 5397 5393 5390 5387 5383 5380 5377 5373 5370 5367 5364 5360 5357 5355 5352 5349 5347 5344 5342 5340 5339 5338 5337 5336 5336 5336 5336 5337 5337 5338 5339 5340 5341 5343 5345 5346 5348
5414 5410 5407 5403 5400 5396 5393 5389 5386 5382 5379 5376 5373 5370 5366 5363 5360 5357 5354 5351 5348 5345 5343 5340 5338 5335 5333 5332 5330 5329 5329 5329 5329 5329 5329 5330 5331 5332 5333 5335 5336 5338 5340 5341
5405 5402 5399 5395 5392 5389 5385 5382 5378 5375 5372 5369 5366 5363 5360 5357 5354 5350 5347 5344 5342 5339 5336 5334 5331 5329 5327 5325 5324 5323 5322 5322 5322 5322 5322 5323 5324 5325 5327 5328 5330 5331 5333 5334
5397 5394 5391 5388 5384 5381 5378 5375 5371 5368 5365 5362 5359 5356 5353 5350 5347 5344 5341 5338 5335 5333 5330 5327 5325 5323 5321 5319 5318 5317 5317 5316 5316 5316 5317 5317 5318 5319 5321 5322 5323 5325 5326 5328
5390 5387 5383 5380 5377 5374 5371 5368 5365 5362 5359 5356 5353 5350 5347 5344 5341 5338 5335 5332 5329 5326 5324 5321 5319 5317 5315 5314 5313 5312 5311 5311 5311 5311 5311 5312 5313 5314 5315 5316 5317 5319 5320 5322
5383 5380 5376 5373 5370 5367 5364 5361 5358 5355 5352 5349 5346 5343 5340 5337 5334 5331 5328 5326 5323 5320 5318 5315 5313 5312 5310 5309 5308 5307 5306 5306 5306 5306 5306 5307 5307 5308 5309 5310 5311 5313 5314 5315